LROP Weather Reports


time (UTC)temp
F
wind
direction
speed
knots
gust
knots
rain 1hr
in
rain 24hr
in
rain mn
in
humidity
%
barometer
mb
20260904003303 64 120 4.3 0.0 0.00 0.00 0.00 94 1016.0
20260904001802 64 120 4.3 0.0 0.00 0.00 0.00 100 1016.0
20260904000303 64 120 4.3 0.0 0.00 0.00 0.00 100 1016.0
20260903234802 66 0.9 0.0 0.00 0.00 0.00 94 1017.0
20260903233302 66 0.9 0.0 0.00 0.00 0.00 94 1017.0
20260903231827 64 240 6.1 0.0 0.00 0.00 0.00 100 1017.0
20260903230303 64 240 6.1 0.0 0.00 0.00 0.00 100 1017.0
20260903223302 70 310 7.0 0.0 0.00 0.00 0.00 69 1017.0
20260903221802 72 40 6.1 0.0 0.00 0.00 0.00 61 1017.0
20260903220302 72 40 6.1 0.0 0.00 0.00 0.00 61 1017.0
20260903214802 72 360 8.7 0.0 0.00 0.00 0.00 61 1016.0
20260903213311 72 360 8.7 0.0 0.00 0.00 0.00 61 1016.0
20260903211806 73 360 8.7 0.0 0.00 0.00 0.00 57 1017.0
20260903210303 73 360 8.7 0.0 0.00 0.00 0.00 57 1017.0
20260903204911 72 360 5.2 0.0 0.00 0.00 0.00 61 1016.0
20260903203302 72 360 5.2 0.0 0.00 0.00 0.00 61 1016.0
20260903201802 72 10 4.3 0.0 0.00 0.00 0.00 61 1016.0
20260903200302 72 10 4.3 0.0 0.00 0.00 0.00 61 1016.0
20260903194803 72 1.7 0.0 0.00 0.00 0.00 61 1016.0
20260903193303 72 1.7 0.0 0.00 0.00 0.00 61 1016.0
20260903191802 72 0 0.0 0.0 0.00 0.00 0.00 57 1016.0
20260903190303 72 0 0.0 0.0 0.00 0.00 0.00 57 1016.0
20260903184802 72 100 2.6 0.0 0.00 0.00 0.00 57 1016.0
20260903183303 72 100 2.6 0.0 0.00 0.00 0.00 57 1016.0
20260903181802 73 100 4.3 0.0 0.00 0.00 0.00 57 1016.0
20260903180302 73 100 4.3 0.0 0.00 0.00 0.00 57 1016.0
20260903174802 73 90 5.2 0.0 0.00 0.00 0.00 50 1016.0
20260903173303 73 90 5.2 0.0 0.00 0.00 0.00 50 1016.0
20260903171803 79 80 5.2 0.0 0.00 0.00 0.00 39 1016.0
20260903170302 79 80 5.2 0.0 0.00 0.00 0.00 39 1016.0
20260903164802 81 90 5.2 0.0 0.00 0.00 0.00 39 1015.0
20260903163302 81 90 5.2 0.0 0.00 0.00 0.00 39 1015.0
20260903161802 81 100 5.2 0.0 0.00 0.00 0.00 42 1015.0
20260903160303 81 100 5.2 0.0 0.00 0.00 0.00 42 1015.0
20260903154803 84 80 4.3 0.0 0.00 0.00 0.00 31 1015.0
20260903153303 84 80 4.3 0.0 0.00 0.00 0.00 31 1015.0
20260903151803 84 50 7.0 0.0 0.00 0.00 0.00 33 1015.0
20260903150303 84 50 7.0 0.0 0.00 0.00 0.00 33 1015.0
20260903144802 86 120 5.2 0.0 0.00 0.00 0.00 33 1015.0
20260903143303 86 120 5.2 0.0 0.00 0.00 0.00 33 1015.0
20260903141803 84 0.9 0.0 0.00 0.00 0.00 33 1016.0
20260903140302 84 0.9 0.0 0.00 0.00 0.00 33 1016.0
20260903134802 86 2.6 0.0 0.00 0.00 0.00 31 1016.0
20260903133301 86 2.6 0.0 0.00 0.00 0.00 31 1016.0
20260903131802 84 2.6 0.0 0.00 0.00 0.00 33 1016.0
20260903130303 84 2.6 0.0 0.00 0.00 0.00 33 1016.0
20260903124802 84 50 7.0 0.0 0.00 0.00 0.00 35 1016.0
20260903123313 84 50 7.0 0.0 0.00 0.00 0.00 35 1016.0
20260903121802 86 100 7.8 0.0 0.00 0.00 0.00 35 1016.0
20260903120303 86 100 7.8 0.0 0.00 0.00 0.00 35 1016.0
20260903114803 82 50 8.7 0.0 0.00 0.00 0.00 40 1017.0
20260903113302 82 50 8.7 0.0 0.00 0.00 0.00 40 1017.0
20260903111803 84 60 9.6 0.0 0.00 0.00 0.00 43 1017.0
20260903110302 84 60 9.6 0.0 0.00 0.00 0.00 43 1017.0
20260903104802 84 70 8.7 0.0 0.00 0.00 0.00 45 1017.0
20260903103302 84 70 8.7 0.0 0.00 0.00 0.00 45 1017.0
20260903101802 82 50 8.7 0.0 0.00 0.00 0.00 48 1017.0
20260903100303 82 50 8.7 0.0 0.00 0.00 0.00 48 1017.0
20260903094802 82 70 11.3 0.0 0.00 0.00 0.00 48 1018.0
20260903093302 82 70 11.3 0.0 0.00 0.00 0.00 48 1018.0
20260903091819 81 80 11.3 0.0 0.00 0.00 0.00 51 1018.0
20260903090318 81 80 11.3 0.0 0.00 0.00 0.00 51 1018.0
20260903084802 79 80 12.2 0.0 0.00 0.00 0.00 54 1018.0
20260903083302 79 80 12.2 0.0 0.00 0.00 0.00 54 1018.0
20260903081802 79 70 12.2 0.0 0.00 0.00 0.00 58 1018.0
20260903080302 79 70 12.2 0.0 0.00 0.00 0.00 58 1018.0
20260903074803 77 70 13.0 0.0 0.00 0.00 0.00 57 1018.0
20260903073302 77 70 13.0 0.0 0.00 0.00 0.00 57 1018.0
20260903071802 75 70 12.2 0.0 0.00 0.00 0.00 65 1018.0
20260903070302 75 70 12.2 0.0 0.00 0.00 0.00 65 1018.0
20260903064802 73 60 9.6 0.0 0.00 0.00 0.00 69 1018.0
20260903063302 73 60 9.6 0.0 0.00 0.00 0.00 69 1018.0
20260903061802 72 50 7.8 0.0 0.00 0.00 0.00 73 1018.0
20260903060306 72 50 7.8 0.0 0.00 0.00 0.00 73 1018.0
20260903054807 68 30 7.0 0.0 0.00 0.00 0.00 83 1018.0
20260903053302 68 30 7.0 0.0 0.00 0.00 0.00 83 1018.0
20260903051802 68 60 7.0 0.0 0.00 0.00 0.00 83 1018.0
20260903050303 68 60 7.0 0.0 0.00 0.00 0.00 83 1018.0
20260903044802 66 60 7.8 0.0 0.00 0.00 0.00 88 1017.0
20260903043302 66 60 7.8 0.0 0.00 0.00 0.00 88 1017.0
20260903041801 66 30 7.8 0.0 0.00 0.00 0.00 88 1017.0
20260903040302 66 30 7.8 0.0 0.00 0.00 0.00 88 1017.0
20260903034802 68 50 7.8 0.0 0.00 0.00 0.00 83 1017.0
20260903033302 68 50 7.8 0.0 0.00 0.00 0.00 83 1017.0
20260903031802 68 20 7.8 0.0 0.00 0.00 0.00 83 1017.0
20260903030408 68 20 7.0 0.0 0.00 0.00 0.00 83 1017.0
20260903024908 68 20 7.0 0.0 0.00 0.00 0.00 83 1017.0
20260903023350 68 20 7.0 0.0 0.00 0.00 0.00 83 1017.0
20260903021801 68 20 7.0 0.0 0.00 0.00 0.00 83 1017.0
20260903020415 70 40 5.2 0.0 0.00 0.00 0.00 73 1017.0
20260903014803 70 40 5.2 0.0 0.00 0.00 0.00 73 1017.0
20260903013301 70 40 5.2 0.0 0.00 0.00 0.00 73 1017.0
20260903011802 70 60 6.1 0.0 0.00 0.00 0.00 73 1017.0
20260903010302 70 60 6.1 0.0 0.00 0.00 0.00 73 1017.0
20260903004802 72 30 6.1 0.0 0.00 0.00 0.00 69 1017.0